Tiempo cada hora Allo

Hoy, 30 Julio, Viernes

Tiempo Temperatura Precipitaciones Viento Presión Humedad
00:00 +18°C° 0.3 mm 2 mps 716 mmHg 91%
01:00 +18°C° 0 mm 2 mps 716 mmHg 91%
02:00 +17°C° 0 mm 2 mps 716 mmHg 91%
03:00 +17°C° 0 mm 2 mps 716 mmHg 91%
04:00 +17°C° 0 mm 2 mps 716 mmHg 90%
05:00 +17°C° 0 mm 2 mps 716 mmHg 88%
06:00 +17°C° 0 mm 2 mps 716 mmHg 87%
07:00 +18°C° 0 mm 3 mps 717 mmHg 82%
08:00 +19°C° 0 mm 3 mps 717 mmHg 77%
09:00 +20°C° 0 mm 3 mps 717 mmHg 72%
10:00 +22°C° 0 mm 3 mps 717 mmHg 64%
11:00 +23°C° 0 mm 4 mps 717 mmHg 57%
12:00 +26°C° 0 mm 4 mps 717 mmHg 50%
13:00 +27°C° 0 mm 5 mps 717 mmHg 47%
14:00 +27°C° 0 mm 6 mps 716 mmHg 44%
15:00 +28°C° 0 mm 7 mps 716 mmHg 41%
16:00 +26°C° 0 mm 7 mps 716 mmHg 46%
17:00 +24°C° 0 mm 7 mps 716 mmHg 52%
18:00 +22°C° 0 mm 6 mps 716 mmHg 57%
19:00 +20°C° 0 mm 5 mps 717 mmHg 65%
20:00 +19°C° 0 mm 4 mps 717 mmHg 73%
21:00 +17°C° 0 mm 3 mps 717 mmHg 82%
22:00 +17°C° 0 mm 3 mps 717 mmHg 83%
23:00 +17°C° 0 mm 3 mps 717 mmHg 84%

Mañana, 31 Julio, Sábado

Tiempo Temperatura Precipitaciones Viento Presión Humedad
00:00 +16°C° 0 mm 3 mps 717 mmHg 85%
01:00 +16°C° 0 mm 3 mps 716 mmHg 84%
02:00 +16°C° 0 mm 3 mps 716 mmHg 83%
03:00 +16°C° 0 mm 3 mps 716 mmHg 83%
04:00 +16°C° 0 mm 3 mps 716 mmHg 81%
05:00 +16°C° 0 mm 3 mps 716 mmHg 80%
06:00 +16°C° 0 mm 3 mps 716 mmHg 79%
07:00 +16°C° 0.1 mm 3 mps 716 mmHg 78%
08:00 +16°C° 0.1 mm 3 mps 716 mmHg 77%
09:00 +17°C° 0.1 mm 3 mps 717 mmHg 76%
10:00 +17°C° 0.2 mm 4 mps 717 mmHg 75%
11:00 +17°C° 0.2 mm 4 mps 717 mmHg 73%
12:00 +17°C° 0.2 mm 4 mps 717 mmHg 72%
13:00 +16°C° 0.2 mm 5 mps 717 mmHg 70%
14:00 +16°C° 0.2 mm 5 mps 717 mmHg 67%
15:00 +16°C° 0.2 mm 6 mps 717 mmHg 65%
16:00 +16°C° 0 mm 6 mps 717 mmHg 63%
17:00 +17°C° 0 mm 5 mps 717 mmHg 62%
18:00 +17°C° 0 mm 5 mps 717 mmHg 60%
19:00 +15°C° 0 mm 4 mps 717 mmHg 68%
20:00 +14°C° 0 mm 4 mps 717 mmHg 75%
21:00 +12°C° 0 mm 3 mps 717 mmHg 83%
22:00 +12°C° 0 mm 3 mps 717 mmHg 84%
23:00 +12°C° 0 mm 3 mps 717 mmHg 85%

Pasado mañana, 1 Agosto, Domingo

Tiempo Temperatura Precipitaciones Viento Presión Humedad
00:00 +12°C° 0 mm 3 mps 717 mmHg 86%
01:00 +11°C° 0 mm 3 mps 717 mmHg 86%
02:00 +11°C° 0 mm 3 mps 717 mmHg 86%
03:00 +11°C° 0 mm 3 mps 717 mmHg 87%
04:00 +12°C° 0 mm 2 mps 717 mmHg 85%
05:00 +12°C° 0 mm 2 mps 717 mmHg 84%
06:00 +13°C° 0 mm 2 mps 717 mmHg 82%
07:00 +15°C° 0 mm 2 mps 718 mmHg 72%
08:00 +17°C° 0 mm 3 mps 718 mmHg 62%
09:00 +19°C° 0 mm 3 mps 718 mmHg 51%
10:00 +20°C° 0 mm 3 mps 718 mmHg 45%
11:00 +22°C° 0 mm 3 mps 718 mmHg 40%
12:00 +25°C° 0 mm 3 mps 718 mmHg 34%
13:00 +25°C° 0 mm 4 mps 717 mmHg 33%
14:00 +25°C° 0 mm 4 mps 717 mmHg 33%
15:00 +26°C° 0 mm 5 mps 717 mmHg 33%
16:00 +23°C° 0 mm 5 mps 717 mmHg 40%
17:00 +22°C° 0 mm 5 mps 717 mmHg 46%
18:00 +20°C° 0 mm 6 mps 717 mmHg 53%
19:00 +18°C° 0 mm 4 mps 718 mmHg 62%
20:00 +16°C° 0 mm 3 mps 718 mmHg 72%
21:00 +14°C° 0 mm 2 mps 718 mmHg 82%
22:00 +14°C° 0 mm 2 mps 718 mmHg 84%
23:00 +13°C° 0 mm 2 mps 718 mmHg 87%

2 Agosto, Lunes

Tiempo Temperatura Precipitaciones Viento Presión Humedad
00:00 +13°C° 0 mm 2 mps 718 mmHg 89%
01:00 +13°C° 0 mm 2 mps 718 mmHg 90%
02:00 +12°C° 0 mm 2 mps 718 mmHg 90%
03:00 +12°C° 0 mm 2 mps 718 mmHg 91%
04:00 +12°C° 0 mm 2 mps 718 mmHg 89%
05:00 +13°C° 0 mm 2 mps 718 mmHg 87%
06:00 +13°C° 0 mm 1 mps 718 mmHg 85%
07:00 +15°C° 0 mm 1 mps 718 mmHg 73%
08:00 +19°C° 0 mm 1 mps 718 mmHg 61%
09:00 +21°C° 0 mm 1 mps 719 mmHg 49%
10:00 +23°C° 0 mm 2 mps 718 mmHg 43%
11:00 +25°C° 0 mm 2 mps 718 mmHg 38%
12:00 +27°C° 0 mm 3 mps 718 mmHg 32%
13:00 +28°C° 0 mm 3 mps 717 mmHg 30%
14:00 +29°C° 0 mm 3 mps 717 mmHg 29%
15:00 +30°C° 0 mm 3 mps 716 mmHg 28%
16:00 +29°C° 0 mm 3 mps 716 mmHg 34%
17:00 +27°C° 0 mm 3 mps 716 mmHg 40%
18:00 +26°C° 0 mm 3 mps 716 mmHg 46%
19:00 +22°C° 0.1 mm 3 mps 716 mmHg 58%
20:00 +20°C° 0.1 mm 3 mps 717 mmHg 70%
21:00 +17°C° 0.1 mm 3 mps 717 mmHg 82%
22:00 +17°C° 0.2 mm 3 mps 717 mmHg 85%
23:00 +16°C° 0.2 mm 3 mps 718 mmHg 87%

3 Agosto, Martes

Tiempo Temperatura Precipitaciones Viento Presión Humedad
00:00 +14°C° 0.2 mm 3 mps 718 mmHg 89%
01:00 +16°C° 0 mm 3 mps 718 mmHg 88%
02:00 +16°C° 0 mm 2 mps 718 mmHg 86%
03:00 +16°C° 0 mm 2 mps 718 mmHg 85%
04:00 +16°C° 0 mm 2 mps 718 mmHg 84%
05:00 +16°C° 0 mm 2 mps 718 mmHg 83%
06:00 +16°C° 0 mm 2 mps 719 mmHg 82%
07:00 +17°C° 0 mm 2 mps 719 mmHg 76%
08:00 +18°C° 0 mm 2 mps 719 mmHg 71%
09:00 +19°C° 0 mm 3 mps 719 mmHg 65%
10:00 +21°C° 0 mm 2 mps 719 mmHg 59%
11:00 +24°C° 0 mm 2 mps 719 mmHg 53%
12:00 +25°C° 0 mm 2 mps 719 mmHg 46%
13:00 +26°C° 0 mm 3 mps 719 mmHg 43%
14:00 +27°C° 0 mm 3 mps 718 mmHg 40%
15:00 +28°C° 0 mm 4 mps 718 mmHg 37%
16:00 +27°C° 0 mm 4 mps 718 mmHg 41%
17:00 +26°C° 0 mm 5 mps 718 mmHg 46%
18:00 +25°C° 0 mm 5 mps 718 mmHg 50%
19:00 +22°C° 0 mm 4 mps 718 mmHg 60%
20:00 +19°C° 0 mm 3 mps 719 mmHg 70%
21:00 +17°C° 0 mm 2 mps 719 mmHg 79%
22:00 +17°C° 0 mm 2 mps 719 mmHg 81%
23:00 +16°C° 0 mm 2 mps 719 mmHg 83%

4 Agosto, Miércoles

Tiempo Temperatura Precipitaciones Viento Presión Humedad
00:00 +16°C° 0 mm 2 mps 719 mmHg 85%
01:00 +15°C° 0 mm 2 mps 719 mmHg 84%
02:00 +15°C° 0 mm 2 mps 719 mmHg 84%
03:00 +15°C° 0 mm 2 mps 718 mmHg 83%
04:00 +15°C° 0 mm 2 mps 719 mmHg 81%
05:00 +15°C° 0 mm 2 mps 719 mmHg 79%
06:00 +16°C° 0 mm 1 mps 719 mmHg 77%
07:00 +19°C° 0 mm 1 mps 719 mmHg 66%
08:00 +22°C° 0 mm 1 mps 719 mmHg 55%
09:00 +24°C° 0 mm 1 mps 719 mmHg 44%
10:00 +26°C° 0 mm 1 mps 719 mmHg 40%
11:00 +28°C° 0 mm 1 mps 719 mmHg 36%
12:00 +29°C° 0 mm 2 mps 719 mmHg 31%
13:00 +30°C° 0 mm 2 mps 718 mmHg 30%
14:00 +31°C° 0 mm 2 mps 717 mmHg 29%
15:00 +31°C° 0 mm 2 mps 717 mmHg 28%
16:00 +31°C° 0 mm 2 mps 716 mmHg 30%
17:00 +31°C° 0 mm 2 mps 716 mmHg 32%
18:00 +30°C° 0 mm 2 mps 716 mmHg 34%
19:00 +28°C° 0 mm 2 mps 715 mmHg 43%
20:00 +25°C° 0 mm 2 mps 715 mmHg 51%
21:00 +23°C° 0 mm 1 mps 715 mmHg 59%
22:00 +23°C° 0 mm 1 mps 715 mmHg 60%
23:00 +22°C° 0 mm 1 mps 714 mmHg 60%
Mostrar más

Necesitamos Su Consentimiento

Meteoprog y nuestros Proveedores de Servicios pueden almacenar y acceder a sus datos personales como cookies, identificadores de dispositivo u otras tecnologías similares de su dispositivo y procesar dichos datos para personalizar contenido y anuncios, además de ofrecer funciones de redes sociales y analizar el tráfico.

  • Almacenar y/o acceder a información en su dispositivo

    Se puede almacenar o acceder a cookies, identificadores de dispositivo u otra información de su dispositivo para los fines anteriormente indicados.

  • Anuncios y contenido personalizados, medición de anuncios y contenido, percepciones del público, y desarrollo de productos

    Los anuncios y el contenido pueden personalizarse en base a su perfil. Se pueden añadir más datos para personalizar mejor los anuncios y contenidos. Se puede medir el rendimiento de los anuncios y contenidos. Se puede obtener la percepción sobre el público que ha visto los anuncios y contenidos. Dichos datos pueden usarse para desarrollar o mejorar la experiencia del usuario, sistemas y software.

Al hacer clic en ‘Estoy De Acuerdo’ usted permitirá el uso de las cookies, identificadores de dispositivo, balizas web u otras tecnologías similares indicadas. Su configuración puede cambiarse desde el navegador de su dispositivo.

Para ciertos fines, los intereses legítimos pueden ser considerados por encima del consentimiento. Puede leer más sobre ello en nuestra Política de Privacidad y Cookies.